Weather History for LTAF - March, 2014

Change the Weather History Date:

Monday, March 31, 2014

  Actual Average Record
Temperature  
Mean Temperature 51 °F -  
Max Temperature 66 °F 72 °F 82 °F (2001)
Min Temperature 36 °F 51 °F 36 °F (2014)
Degree Days  
Heating Degree Days 14    
Growing Degree Days 1 (Base 50)    
Moisture  
Dew Point 26 °F    
Average Humidity 38    
Maximum Humidity 76    
Minimum Humidity 9    
Precipitation  
Precipitation 0.00 in 0.08 in - ()
Sea Level Pressure  
Sea Level Pressure 29.93 in    
Wind  
Wind Speed 5 mph ()    
Max Wind Speed 14 mph    
Max Gust Speed -    
Visibility 6.0 miles    
Events      
Averages and records for this station are not official NWS values.
T = Trace of Precipitation, MM = Missing Value Source: Averaged Metar Reports

Daily Weather History Graph

Daily Weather History Graph

Search for Another Location

Airport or City:

Trip Planner

Search our weather history database for the weather conditions in past years. The results will help you decide how hot, cold, wet, or windy it might be!

Date:

Astronomy

Mar. 31, 2014 Rise Set
Actual Time 6:26 AM EEST 7:00 PM EEST
Civil Twilight 6:00 AM EEST 7:26 PM EEST
Nautical Twilight 5:29 AM EEST 7:57 PM EEST
Astronomical Twilight 4:58 AM EEST 8:28 PM EEST
Moon 6:37 AM EEST (3/31) 7:54 PM EEST (3/31)
Length of Visible Light 13h 25m
Length of Day
12h 33m
New Moon, 0% of the Moon is Illuminated
Mar 31
New Moon
Apr 7
First Quarter
Apr 15
Full
Apr 22
Last Quarter
Apr 29
New

Hourly Weather History & Observations

Time (EEST) Temp. Windchill Dew Point Humidity Pressure Visibility Wind Dir Wind Speed Gust Speed Precip Events Conditions
12:20 AM 42.8 °F 38.6 °F 17.6 °F 36% 29.95 in - NE 6.9 mph - N/A   Clear
12:50 AM 44.6 °F 40.7 °F 17.6 °F 34% 29.95 in - ENE 6.9 mph - N/A   Clear
1:20 AM 42.8 °F 38.0 °F 19.4 °F 39% 29.95 in - NE 8.1 mph - N/A   Clear
1:50 AM 42.8 °F 40.1 °F 17.6 °F 36% 29.95 in - NE 4.6 mph - N/A   Clear
2:00 AM 43 °F - 18 °F 24% 29.97 in 6 mi NE 4.6 mph - -  
2:20 AM 42.8 °F 39.3 °F 17.6 °F 36% 29.95 in - ENE 5.8 mph - N/A   Clear
2:50 AM 41.0 °F - 19.4 °F 42% 29.95 in - Calm Calm - N/A   Clear
4:20 AM 42.8 °F 38.6 °F 19.4 °F 39% 29.95 in - ENE 6.9 mph - N/A   Clear
4:50 AM 42.8 °F 39.3 °F 19.4 °F 39% 29.95 in - ENE 5.8 mph - N/A   Clear
5:20 AM 37.4 °F - 24.8 °F 60% 29.98 in - Variable 2.3 mph - N/A   Clear
5:50 AM 37.4 °F - 28.4 °F 70% 29.98 in - Variable 2.3 mph - N/A   Clear
6:00 AM 37 °F - 29 °F 62% 29.98 in 6 mi North 2.3 mph - -  
6:20 AM 39.2 °F 35.9 °F 26.6 °F 61% 29.98 in - NE 4.6 mph - N/A   Clear
6:50 AM 42.8 °F 40.1 °F 23.0 °F 46% 29.98 in - NNE 4.6 mph - N/A   Clear
7:20 AM 46.4 °F 42.9 °F 26.6 °F 46% 29.98 in - North 6.9 mph - N/A   Clear
7:50 AM 48.2 °F - 24.8 °F 40% 29.98 in - NNE 6.9 mph - N/A   Clear
8:20 AM 50.0 °F - 21.2 °F 32% 29.98 in - NE 6.9 mph - N/A   Clear
8:50 AM 51.8 °F - 21.2 °F 30% 29.98 in - Variable 4.6 mph - N/A   Clear
9:00 AM 52 °F - 20 °F 17% 29.99 in 6 mi ENE 4.6 mph - -  
9:20 AM 53.6 °F - 21.2 °F 28% 29.98 in - North 4.6 mph - N/A   Clear
9:50 AM 55.4 °F - 17.6 °F 23% 29.98 in - Variable 2.3 mph - N/A   Clear
10:20 AM 55.4 °F - 21.2 °F 26% 29.98 in - Variable 3.5 mph - N/A   Clear
10:50 AM 57.2 °F - 21.2 °F 25% 29.98 in - Variable 3.5 mph - N/A   Clear
11:20 AM 57.2 °F - 19.4 °F 23% 29.98 in - West 4.6 mph - N/A   Clear
11:50 AM 59.0 °F - 21.2 °F 23% 29.95 in - North 4.6 mph - N/A   Clear
12:00 PM 59 °F - 20 °F 12% 29.98 in 6 mi North 4.6 mph - -  
12:20 PM 60.8 °F - 17.6 °F 19% 29.95 in - Variable 4.6 mph - N/A   Clear
12:50 PM 62.6 °F - 17.6 °F 18% 29.95 in - Variable 4.6 mph - N/A   Clear
1:20 PM 62.6 °F - 19.4 °F 19% 29.95 in - West 6.9 mph - N/A   Clear
1:50 PM 62.6 °F - 23.0 °F 22% 29.92 in - West 8.1 mph - N/A   Clear
2:20 PM 64.4 °F - 23.0 °F 21% 29.89 in - Variable 4.6 mph - N/A   Clear
2:50 PM 64.4 °F - 21.2 °F 19% 29.89 in - Variable 4.6 mph - N/A   Clear
3:00 PM 64 °F - 20 °F 9% 29.90 in 6 mi WNW 4.6 mph - -  
3:20 PM 66.2 °F - 24.8 °F 21% 29.89 in - Variable 4.6 mph - N/A   Clear
3:50 PM 66.2 °F - 23.0 °F 19% 29.86 in - SW 5.8 mph - N/A   Clear
4:20 PM 66.2 °F - 26.6 °F 23% 29.86 in - WSW 9.2 mph - N/A   Clear
4:50 PM 64.4 °F - 26.6 °F 24% 29.86 in - WSW 13.8 mph - N/A   Clear
5:20 PM 62.6 °F - 26.6 °F 26% 29.89 in - WSW 13.8 mph - N/A   Clear
5:50 PM 60.8 °F - 30.2 °F 31% 29.89 in - WSW 13.8 mph - N/A   Clear
6:00 PM 61 °F - 29 °F 19% 29.89 in 6 mi WSW 13.8 mph - -  
6:20 PM 60.8 °F - 24.8 °F 25% 29.89 in - SW 11.5 mph - N/A   Clear
6:50 PM 57.2 °F - 32.0 °F 38% 29.89 in - WSW 12.7 mph - N/A   Clear
7:20 PM 55.4 °F - 35.6 °F 47% 29.89 in - WSW 6.9 mph - N/A   Clear
7:50 PM 53.6 °F - 37.4 °F 54% 29.89 in - Variable 4.6 mph - N/A   Clear
8:20 PM 53.6 °F - 37.4 °F 54% 29.89 in - Variable 2.3 mph - N/A   Clear
8:50 PM 51.8 °F - 37.4 °F 58% 29.89 in - ESE 3.5 mph - N/A   Clear
9:00 PM 52 °F - 37 °F 45% 29.91 in 6 mi ESE 3.5 mph - -  
9:20 PM 51.8 °F - 37.4 °F 58% 29.89 in - ESE 5.8 mph - N/A   Clear
9:50 PM 51.8 °F - 37.4 °F 58% 29.89 in - East 5.8 mph - N/A   Clear
10:20 PM 51.8 °F - 37.4 °F 58% 29.89 in - East 3.5 mph - N/A   Clear
10:50 PM 50.0 °F - 37.4 °F 62% 29.89 in - NE 3.5 mph - N/A   Clear
11:20 PM 46.4 °F 45.2 °F 37.4 °F 71% 29.89 in - ESE 3.5 mph - N/A   Clear
11:50 PM 46.4 °F - 37.4 °F 71% 29.89 in - Variable 2.3 mph - N/A   Clear
12:00 AM 47 °F - 38 °F 60% 29.91 in 6 mi NE 2.3 mph - -  
12:20 AM 46.4 °F 45.2 °F 37.4 °F 71% 29.89 in - West 3.5 mph - N/A   Clear
12:50 AM 44.6 °F - 37.4 °F 76% 29.89 in - Variable 1.2 mph - N/A   Clear